Temp
33 33 33 34 33 32 32 32 32 32 31 30 31 31 32 32 31 31 32 32 33 32 31 30 29 28 27 26 25 24 23 23 22 23 23 24 24 24 25 25 24 24 24 24
32 32 35 33 33 32 32 32 33 32 31 30 31 31 33 33 32 32 32 32 32 32 30 29 29 28 27 26 25 24 23 23 22 23 24 25 25 25 23 25 25 24 24 24
33 34 34 33 33 33 34 33 33 32 31 31 30 33 33 33 33 32 32 33 33 32 32 26 30 28 28 27 25 25 24 23 23 24 23 23 23 23 24 25 25 25 24 24
33 35 33 33 33 34 33 34 33 32 32 32 31 33 34 34 32 33 32 32 33 32 33 30 31 29 28 27 26 25 24 23 23 23 24 24 25 23 24 25 25 25 24 24
33 33 33 33 34 34 34 33 33 33 33 32 33 32 35 33 34 33 33 33 33 34 33 32 32 30 29 28 26 25 24 23 23 23 23 24 24 26 25 24 24 24 24 24
33 34 34 34 34 34 33 33 34 34 34 31 32 32 35 35 34 33 33 33 33 33 33 33 31 30 29 28 27 26 24 23 23 23 22 23 25 25 26 25 25 26 26 26
33 33 34 34 33 33 33 34 33 33 34 33 33 31 34 35 34 33 33 33 33 33 33 33 32 31 29 28 27 26 25 23 23 23 23 23 23 23 24 24 25 26 26 26
33 33 35 35 34 35 33 35 34 31 33 34 34 33 34 34 34 33 32 33 33 33 33 32 31 30 29 28 27 27 25 24 24 23 23 23 23 24 24 24 26 26 26 27
33 33 36 35 36 35 35 33 36 35 35 34 35 35 35 33 34 34 33 33 33 32 32 32 32 30 29 28 27 27 26 24 24 24 23 23 23 23 25 25 24 25 25 26
34 32 35 35 34 34 35 36 34 35 32 32 34 34 35 34 34 34 34 34 33 33 32 32 32 31 30 29 28 27 26 25 25 25 24 24 23 23 23 24 23 24 25 25
35 34 34 34 34 35 33 34 35 36 35 34 33 35 37 35 35 34 34 35 34 34 33 32 31 31 30 29 28 27 26 26 25 25 25 25 24 24 23 24 24 24 24 24
35 35 34 35 37 36 36 36 36 34 33 35 34 35 37 36 36 35 35 34 35 34 34 33 32 30 29 28 28 27 26 26 26 26 25 25 24 24 25 24 24 24 24 24
34 33 33 34 35 35 34 36 37 37 37 34 33 35 37 36 34 35 36 35 33 33 33 32 32 31 30 29 27 27 26 26 27 26 26 25 25 25 24 25 24 24 24 24
32 35 34 34 35 35 34 35 36 36 35 35 35 35 36 36 35 35 34 34 35 33 33 33 32 31 29 29 27 26 26 26 26 26 26 26 25 25 25 25 24 24 24 24
33 32 34 35 35 35 35 35 36 35 36 35 36 36 36 37 37 37 36 34 35 34 34 33 33 31 29 28 27 26 26 25 25 25 25 25 25 24 24 24 24 24 24 24
32 32 32 32 35 35 34 35 36 36 36 36 36 36 37 37 36 35 34 34 34 34 34 34 33 32 30 29 27 26 26 25 24 24 24 24 23 23 23 23 23 23 23 23
30 32 32 31 34 34 33 34 35 36 36 36 35 36 37 36 35 36 36 35 34 34 34 34 33 33 31 29 28 27 26 24 24 24 24 24 23 23 23 23 23 23 23 23
29 30 31 31 32 30 34 36 35 36 36 37 36 36 37 37 37 38 38 37 36 36 35 33 33 32 30 29 28 27 26 25 24 24 24 24 23 23 23 23 23 23 23 23
31 29 30 30 31 32 33 34 33 34 34 37 36 36 37 36 35 35 36 36 36 36 34 32 31 29 28 27 26 26 25 25 25 24 23 22 22 22 22 21 21 21 21 22
31 30 29 30 29 29 33 34 33 34 32 36 36 36 36 34 35 37 34 34 33 33 31 30 29 28 27 26 25 25 25 24 24 23 22 20 20 20 20 20 20 21 20 20
28 28 28 29 29 31 33 32 32 30 31 30 31 33 34 34 33 30 30 30 31 30 30 28 28 28 26 25 24 25 24 24 22 21 20 20 20 19 19 19 19 19 19 20
28 28 29 29 28 28 30 30 30 28 28 28 28 28 30 32 30 29 29 28 28 28 27 27 26 25 24 24 24 24 23 20 19 19 19 18 17 17 18 17 18 18 19 19
26 28 27 29 29 27 28 28 28 28 28 27 27 28 28 30 31 30 29 28 28 27 26 26 25 24 23 23 23 22 19 19 19 19 18 18 16 16 15 15 15 16 17 17
25 25 26 27 28 29 28 27 27 27 27 27 28 28 29 30 31 29 28 27 27 26 25 25 24 24 22 21 21 20 19 19 19 18 17 17 16 16 15 15 13 14 15 15
24 23 24 24 26 26 27 26 26 26 27 27 27 28 29 30 30 29 28 27 26 25 24 24 24 23 22 20 20 19 19 19 19 19 18 18 16 16 16 13 12 13 13 13
25 24 24 24 24 21 24 25 25 25 26 26 26 27 29 29 30 29 27 26 25 24 24 23 23 22 21 20 20 19 19 19 20 20 20 20 20 19 18 16 15 13 13 12
Height
774 782 785 770 774 780 785 784 783 774 772 780 779 776 767 767 770 772 773 772 771 774 782 785 793 797 801 805 810 814 819 822 826 830 832 833 835 837 837 838 839 840 841 841
782 786 763 769 773 779 781 786 776 775 774 780 774 772 760 758 763 764 767 768 768 771 780 784 789 794 797 802 807 811 816 820 824 827 829 831 833 834 836 836 837 838 839 840
777 767 763 772 774 779 770 775 775 782 774 772 776 765 756 749 751 756 759 759 762 766 771 783 784 789 794 797 803 808 813 817 822 825 828 830 832 834 834 834 836 836 837 838
771 758 772 773 775 770 779 762 768 775 778 785 772 781 756 749 754 751 753 756 756 761 764 774 777 784 789 794 799 804 810 814 819 823 825 827 827 830 832 833 835 835 836 836
772 769 772 776 770 766 770 765 766 770 772 777 771 779 752 750 749 748 747 745 750 751 757 764 771 778 784 791 795 801 806 811 815 820 823 825 826 826 829 831 834 834 835 836
762 756 760 760 760 763 761 765 763 762 764 796 777 782 754 752 750 746 741 739 743 747 753 760 767 775 781 787 793 797 803 808 812 816 820 823 824 825 826 829 830 831 832 832
766 764 755 755 768 761 766 764 783 785 775 786 767 785 758 742 739 740 740 738 740 745 751 757 765 771 778 783 789 793 799 804 808 813 816 820 822 824 825 827 827 827 828 828
772 779 754 747 758 759 766 760 775 805 787 773 758 776 756 738 733 733 736 735 739 744 749 755 763 770 775 781 786 790 795 800 804 808 812 816 819 820 822 823 824 825 825 825
766 769 736 742 741 750 757 776 743 765 759 774 758 747 739 737 734 735 736 737 741 745 749 754 759 767 772 777 782 787 791 796 800 804 808 811 814 817 818 819 821 822 824 823
748 774 741 742 745 748 752 739 770 761 796 793 764 764 756 745 743 738 738 737 739 742 749 752 756 762 768 773 779 785 788 792 796 800 803 807 810 812 815 817 817 818 820 821
741 756 755 747 753 747 759 761 755 746 756 773 778 760 729 735 733 737 735 731 735 738 744 749 755 760 765 770 775 780 784 788 792 795 798 802 804 807 810 811 813 813 815 817
736 745 758 749 725 729 730 739 741 766 773 757 762 758 719 723 725 727 729 732 729 734 740 745 751 758 762 767 771 776 780 783 786 790 793 796 799 802 804 805 807 808 810 812
739 752 764 755 741 736 744 733 730 731 731 759 773 755 718 723 728 726 725 730 734 735 739 743 748 753 758 763 768 772 775 778 782 785 789 791 793 796 798 799 801 803 804 805
741 738 749 753 738 733 744 734 731 731 749 746 747 742 727 724 727 724 728 727 729 734 737 740 745 750 755 759 763 767 770 774 777 780 783 785 787 790 792 793 795 796 798 799
739 751 739 733 727 727 734 733 727 738 733 747 731 735 727 716 713 715 716 724 726 730 733 737 740 745 750 754 759 763 766 769 772 775 778 781 784 786 787 788 789 791 793 794
737 750 743 745 729 727 735 728 724 722 724 725 726 731 710 709 712 716 720 723 726 728 727 730 734 740 745 749 755 759 762 766 769 771 774 777 779 781 782 783 784 786 787 788
750 744 748 754 730 731 747 731 724 718 715 721 734 721 707 712 714 711 712 716 721 721 723 726 730 735 740 745 750 755 759 762 765 768 770 773 775 776 779 780 780 780 781 782
751 749 744 754 741 767 726 702 710 711 709 705 708 708 706 707 701 700 701 707 712 714 719 724 728 733 739 743 747 751 755 759 762 765 768 769 771 772 773 775 775 775 775 776
736 748 752 755 748 732 722 714 720 720 717 698 705 704 701 704 708 706 701 703 706 710 717 723 729 734 740 743 747 750 755 757 759 763 767 766 768 769 769 769 770 770 770 770
725 733 747 746 756 760 724 703 706 708 733 695 696 701 699 708 720 703 700 704 708 712 718 724 729 735 739 743 747 750 754 757 759 762 766 765 766 767 767 767 767 766 765 765
742 745 747 744 748 733 709 712 710 742 734 717 712 709 703 710 707 707 707 710 712 715 720 725 730 735 740 745 748 750 754 757 759 761 765 765 764 764 765 764 764 763 763 762
739 739 735 734 744 749 715 717 732 729 722 721 718 718 714 706 710 710 710 713 716 719 723 726 732 738 743 746 748 751 755 758 758 761 763 763 763 762 762 762 761 760 759 758
748 735 737 725 726 724 719 725 724 723 723 721 722 718 716 710 708 710 712 714 716 720 724 727 732 738 743 746 749 753 757 758 760 762 763 762 761 761 761 760 759 757 756 755
737 736 737 733 721 719 724 726 727 726 725 722 719 716 712 709 706 712 714 717 719 722 726 730 735 739 745 749 751 754 756 759 761 762 762 761 761 761 761 760 757 755 754 752
742 745 743 740 731 728 723 728 730 727 723 720 718 713 709 706 706 711 716 719 722 724 728 732 735 740 745 749 752 755 757 759 760 762 762 762 762 762 762 760 757 755 753 751
734 738 740 739 734 743 733 729 728 726 723 721 720 713 708 706 707 712 716 720 724 727 730 734 738 742 746 750 753 756 758 759 761 761 761 761 761 761 762 761 759 756 753 750
Wind_Speed
12 10 12 8 1 6 10 11 10 3 1 6 9 11 9 12 14 15 15 14 14 12 7 14 16 16 16 16 17 18 17 15 16 15 14 12 11 10 10 10 8 8 6 8
8 14 11 0 6 10 10 10 3 5 0 5 9 13 12 15 18 17 17 15 15 12 14 12 17 19 19 18 18 19 18 17 17 15 14 11 10 9 10 10 9 9 8 8
15 5 3 5 8 8 11 5 7 4 1 7 9 13 7 14 17 18 18 16 17 15 14 12 18 20 20 20 20 20 20 19 17 15 14 11 7 7 10 10 9 8 8 9
10 10 7 8 9 8 10 4 4 2 7 4 2 4 3 5 8 16 19 19 18 17 16 16 19 21 21 20 19 20 21 20 18 17 15 14 11 8 8 8 10 7 10 9
7 9 13 14 9 5 3 4 3 4 7 7 7 5 7 3 5 8 13 19 20 17 17 16 18 21 19 18 18 20 21 22 20 19 16 15 14 11 9 9 7 8 8 7
14 4 5 7 1 6 1 7 6 5 6 5 3 4 4 4 5 2 3 12 18 17 16 16 20 19 18 18 17 18 21 22 22 21 19 16 15 12 11 11 8 9 8 9
14 16 13 10 11 6 9 12 6 4 5 3 6 3 7 5 4 6 4 11 16 16 17 15 15 18 18 19 18 18 20 21 22 22 20 17 17 15 12 11 11 8 9 9
12 13 16 14 17 11 14 13 9 4 5 6 6 2 3 4 6 2 2 9 14 16 15 15 15 18 19 20 19 18 20 20 22 22 21 18 17 17 16 14 13 11 10 9
7 10 4 5 10 10 8 10 9 10 9 8 2 3 6 3 4 3 7 11 13 15 13 13 15 19 21 21 21 20 19 20 20 22 22 21 19 19 18 16 14 14 12 11
2 5 6 4 6 7 14 6 8 9 6 8 7 4 8 4 5 5 8 11 13 14 15 12 13 17 19 20 20 19 19 18 19 20 21 22 21 20 20 18 17 16 15 12
15 7 7 7 10 5 6 11 10 8 5 6 5 4 6 3 6 8 7 10 13 14 14 14 12 15 17 18 20 20 20 19 19 20 20 20 21 21 20 21 20 19 17 15
18 8 10 14 4 3 11 8 11 9 12 7 9 7 4 3 5 8 10 8 11 12 13 12 14 17 17 18 19 20 19 20 20 19 19 20 19 19 20 21 21 20 19 18
8 9 11 13 8 9 10 12 13 14 12 4 7 4 7 5 6 8 9 11 8 10 12 12 12 14 17 18 18 19 19 20 19 18 19 19 19 20 21 21 20 20 20 20
6 13 11 13 8 7 8 11 13 14 11 9 9 10 8 8 8 10 11 11 13 12 12 12 12 12 16 17 19 18 18 18 18 20 20 20 20 20 21 20 20 20 20 20
7 13 15 15 17 14 14 15 12 16 14 14 8 10 8 8 7 5 8 13 13 13 13 12 12 12 16 17 17 17 16 17 17 18 18 18 17 19 19 19 20 19 19 19
5 10 9 17 15 17 15 17 19 16 17 9 13 10 6 5 4 6 9 11 13 13 13 13 12 12 15 17 16 15 15 15 15 15 15 14 14 15 16 17 17 18 20 20
5 9 10 18 19 13 17 15 18 16 14 14 13 11 6 7 6 8 10 11 13 13 12 12 12 11 12 15 15 15 14 14 14 12 11 12 12 13 14 14 14 17 19 20
10 8 9 12 15 18 15 13 14 18 19 18 14 8 5 8 6 10 10 11 11 9 10 9 9 11 12 13 13 13 13 13 13 11 11 10 10 10 11 13 15 15 16 19
14 12 11 12 14 17 16 7 9 14 19 18 17 13 11 8 6 11 11 9 10 8 6 9 11 13 13 14 14 14 13 13 13 10 8 8 7 8 9 11 13 14 14 17
14 14 12 13 16 20 15 5 1 5 10 13 15 16 10 7 9 7 5 5 5 6 10 13 14 14 13 12 13 12 11 10 8 6 5 4 4 6 8 10 11 12 12 15
12 13 17 15 17 16 12 2 2 11 2 10 10 8 8 8 5 6 7 7 8 10 13 15 14 13 13 12 12 11 9 6 5 3 1 2 2 5 9 12 13 12 12 14
16 12 12 13 18 22 6 4 9 7 8 10 11 12 10 6 3 6 9 11 12 12 16 15 15 14 13 12 11 9 8 5 4 2 0 2 3 3 5 8 12 14 14 15
14 14 9 9 4 7 5 5 6 8 10 10 12 12 11 7 7 8 10 11 12 14 14 15 16 15 12 9 8 9 8 6 5 2 3 4 5 5 6 7 9 10 10 12
7 4 8 10 13 3 3 9 9 9 11 11 12 13 10 10 9 9 10 10 11 14 14 15 15 13 12 9 8 9 9 7 6 6 6 6 6 6 7 7 8 8 9 10
7 5 7 11 13 10 10 11 13 12 13 12 12 11 10 10 9 10 9 10 10 13 14 14 13 12 11 10 10 10 9 9 8 7 7 8 8 7 6 7 11 8 8 10
12 15 12 11 5 4 16 15 16 15 14 12 12 13 6 6 8 10 10 11 13 14 14 12 11 12 12 12 12 11 10 8 7 7 6 4 4 4 4 5 6 13 12 12
Wind_Direction
204 226 225 261 303 306 307 310 309 5 23 251 254 262 242 200 213 211 214 217 212 210 195 194 197 193 188 189 191 192 192 181 183 190 194 195 201 209 212 211 217 218 224 216
194 232 251 307 281 279 284 299 352 120 86 234 275 271 252 226 215 220 212 219 220 193 193 197 192 193 194 192 194 195 195 187 188 194 194 199 206 207 211 215 216 221 232 212
239 84 319 233 262 276 265 287 360 342 283 233 282 258 240 227 223 217 225 220 220 214 193 187 195 195 196 191 196 194 195 191 190 194 191 190 194 219 213 220 215 226 215 195
245 239 221 250 266 283 284 26 287 279 279 348 321 323 155 186 212 223 218 221 219 206 219 195 191 194 196 194 194 193 193 192 192 194 200 201 206 207 211 220 224 225 201 197
214 216 229 243 267 305 13 303 291 309 280 315 141 262 110 196 215 199 214 216 215 208 207 193 188 190 192 189 190 191 192 193 193 197 208 206 213 202 198 215 221 225 210 214
262 141 253 241 299 256 260 237 232 223 249 173 86 334 278 41 352 309 208 204 195 201 194 189 184 182 186 184 187 189 192 196 198 198 205 209 206 208 208 205 215 224 222 222
210 224 227 237 245 204 227 248 249 249 217 89 120 308 322 338 344 326 237 179 180 191 180 180 178 183 181 184 187 189 191 196 196 198 201 207 206 205 213 223 224 236 233 233
206 203 209 200 231 243 209 267 292 282 287 356 138 256 359 313 304 19 138 166 170 177 175 180 178 185 186 187 189 192 192 197 197 200 205 206 212 215 218 219 227 234 243 241
206 242 257 223 232 243 192 235 290 294 232 255 74 20 128 94 123 108 117 155 164 171 180 186 176 180 187 188 191 193 193 198 201 203 205 207 210 218 221 222 224 234 246 251
176 263 202 106 198 219 256 332 221 216 269 261 132 264 57 137 142 126 149 156 165 172 182 191 185 185 187 188 191 197 197 198 202 206 208 211 215 218 223 226 230 235 238 242
234 246 153 172 207 219 175 224 236 300 304 300 225 130 40 77 160 156 151 162 163 171 181 183 195 187 184 187 189 195 198 198 202 205 210 213 216 221 226 229 233 236 239 237
219 241 248 245 226 281 264 261 219 232 188 240 313 314 88 117 171 171 162 169 157 169 173 180 180 182 185 188 190 195 197 201 207 207 208 213 217 221 227 231 234 236 236 236
160 232 248 240 194 205 232 235 240 233 252 270 273 264 141 188 183 208 190 162 170 163 167 176 178 179 186 188 194 199 200 204 206 207 212 215 218 222 227 231 233 233 234 236
248 262 243 271 280 18 216 228 228 240 240 252 212 274 165 221 222 208 203 183 179 180 170 173 178 182 187 189 192 196 201 203 204 208 212 217 218 221 227 231 232 232 232 233
238 251 258 266 280 285 280 283 241 235 244 267 283 216 258 301 289 220 194 197 195 181 181 183 185 183 186 187 191 194 198 198 200 204 211 218 222 227 231 234 236 236 233 234
238 264 279 265 264 266 266 258 260 236 254 253 253 265 273 289 238 206 180 183 190 194 196 190 188 179 183 185 189 190 193 195 195 201 209 212 217 224 229 234 238 239 237 236
260 274 256 260 269 282 266 254 260 258 236 233 231 236 200 211 213 207 198 197 201 204 192 188 188 180 178 178 179 182 185 186 187 195 199 205 207 214 227 233 236 238 239 240
271 259 263 265 269 249 263 279 283 260 245 239 239 238 234 243 258 223 218 223 213 207 179 179 177 164 165 164 164 164 166 174 173 180 191 190 202 214 225 236 242 246 244 243
220 252 263 257 251 259 257 222 249 245 246 246 229 229 228 219 252 244 225 230 233 220 175 171 164 154 150 150 150 150 157 161 158 163 181 170 185 214 230 239 247 251 250 248
248 218 249 247 256 257 264 292 330 280 255 254 219 244 259 190 229 228 119 196 197 170 156 151 149 148 145 146 145 146 149 151 148 152 189 191 212 248 258 259 261 263 258 256
212 229 233 234 248 255 273 54 310 232 300 352 2 335 285 220 344 97 121 134 143 145 148 141 145 143 141 144 146 143 147 140 116 115 244 265 273 277 276 277 271 270 270 267
251 250 236 233 250 246 64 248 248 357 333 343 348 347 334 282 225 162 144 143 143 139 141 139 138 138 139 141 142 140 127 116 96 86 15 358 343 323 302 291 282 274 268 267
246 267 288 274 315 49 32 24 356 333 333 345 332 320 307 270 212 184 158 155 147 144 139 139 136 134 133 130 139 134 129 120 114 93 48 23 9 355 338 314 298 296 283 269
266 329 262 284 264 291 3 43 16 359 344 331 332 316 290 257 201 181 159 151 146 143 143 139 139 139 133 133 127 128 130 130 122 98 77 61 45 22 4 350 327 306 298 294
267 307 298 279 281 301 194 5 349 342 340 339 339 328 304 252 197 183 167 159 152 147 145 146 147 146 143 143 141 140 140 140 126 108 91 82 78 60 32 22 18 353 327 308
257 260 261 263 248 288 293 310 322 328 335 340 341 338 315 266 190 179 166 158 157 155 151 150 155 154 158 162 156 155 153 146 143 141 138 120 104 84 44 19 11 15 15 353